Location: Saint-Usage
(47.1052°N, 5.2587°E)
Time: 01:52:27
(UTC+01:00)

NOAA 19 - Pass Details

Date: 05 December 2021
Orbit: 841 x 860 km, 99.2° (Epoch: 17 January)

Event Time Altitude Azimuth Distance (km) Brightness Sun altitude
Rises 17:42:28 0° 118° (ESE) 3,391 8.0 -8.7°
Reaches altitude 10° 17:45:25 10° 101° (ESE) 2,462 7.1 -9.1°
Maximum altitude 17:49:13 20° 57° (ENE) 1,872 6.4 -9.7°
Drops below altitude 10° 17:53:03 10° 12° (NNE) 2,479 7.3 -10.3°
Sets 17:56:01 0° 356° (N) 3,422 8.2 -10.8°
